• MPC Preparation (Info)

  • MPEC 2020-F134 : 2020 FV4

    The following Minor Planet Electronic Circular may be linked-to from your own Web pages, but must not otherwise be redistributed electronically.

    A form allowing access to any MPEC is at the bottom of this page.


    Read MPEC 2020-F133 Read MPEC 2020-F135


    M.P.E.C. 2020-F134                               Issued 2020 March 25, 19:52 UT
    
         The Minor Planet Electronic Circulars contain information on unusual
             minor planets and routine data on comets.  They are published
        on behalf of Division F of the International Astronomical Union by the
              Minor Planet Center, Smithsonian Astrophysical Observatory,
                              Cambridge, MA 02138, U.S.A.
    
                 Prepared using the Tamkin Foundation Computer Network
    
                                  MPC@CFA.HARVARD.EDU
                URL https://www.minorplanetcenter.net/    ISSN 1523-6714
    
                                    2020 FV4                                 
    
    
    Observations:
         K20F04V* C2020 03 24.35600 13 22 39.59 +34 12 56.0          19.6 GVEF134703
         K20F04V  C2020 03 24.36125 13 22 27.00 +34 14 40.6          19.0 GVEF134703
         K20F04V  C2020 03 24.37175 13 22 01.65 +34 18 12.2                VEF134703
         K20F04V  C2020 03 24.45174 13 18 47.40 +34 44 31.5          18.7 GVEF134I52
         K20F04V  C2020 03 24.45251 13 18 45.48 +34 44 47.0          18.6 GVEF134I52
         K20F04V  C2020 03 24.45290 13 18 44.52 +34 44 53.0          18.5 GVEF134I52
         K20F04V  C2020 03 24.78783 13 05 40.78 +36 33 32.7          18.6 VVEF134033
         K20F04V  C2020 03 24.78837 13 05 39.40 +36 33 43.8          18.5 VVEF134033
         K20F04V  C2020 03 24.78891 13 05 38.01 +36 33 55.0          18.5 VVEF134033
         K20F04V KC2020 03 24.82730 13 03 58.60 +36 47 10.1          19.2 GVEF134113
         K20F04V KC2020 03 24.83194 13 03 46.47 +36 48 44.9          19.5 GVEF134113
         K20F04V KC2020 03 24.83657 13 03 34.30 +36 50 20.6          19.7 GVEF134113
         K20F04V KC2020 03 24.85227 13 02 52.40 +36 55 40.0          19.0 VSEF134C43
         K20F04V KC2020 03 24.85413 13 02 47.46 +36 56 17.4          19.2 VSEF134C43
         K20F04V KC2020 03 24.85599 13 02 42.56 +36 56 55.3          19.3 VSEF134C43
         K20F04V KC2020 03 24.85786 13 02 37.59 +36 57 34.1          19.2 VSEF134C43
         K20F04V KC2020 03 24.89394 13 01 00.99 +37 09 40.6          18.3 RVEF134B15
         K20F04V KC2020 03 24.89840 13 00 48.91 +37 11 10.6          18.3 RVEF134B15
         K20F04V KC2020 03 24.90520 13 00 30.53 +37 13 28.4          18.5 RVEF134B15
         K20F04V  C2020 03 24.91683 12 59 59.24 +37 17 43.2                VEF134246
         K20F04V  C2020 03 24.91738 12 59 57.71 +37 17 54.2          18.9 GVEF134246
         K20F04V  C2020 03 24.91749 12 59 57.43 +37 17 56.8                VEF134246
         K20F04V  C2020 03 24.91759 12 59 57.17 +37 17 59.2                VEF134246
         K20F04V KC2020 03 24.92266 12 59 48.17 +37 19 44.0          19.0 VqEF134I93
         K20F04V KC2020 03 24.92471 12 59 42.57 +37 20 25.4          19.0 VqEF134I93
         K20F04V KC2020 03 24.92734 12 59 35.39 +37 21 19.2          18.8 VqEF134I93
         K20F04V KC2020 03 24.95758 12 58 08.82 +37 31 14.9          19.3 VtEF134198
         K20F04V KC2020 03 24.95872 12 58 05.69 +37 31 37.6          19.3 VtEF134198
         K20F04V KC2020 03 24.96304 12 57 53.73 +37 33 03.4          19.4 VtEF134198
         K20F04V KC2020 03 24.96393 12 57 51.28 +37 33 20.8          19.3 VtEF134198
         K20F04V KC2020 03 24.97014 12 57 34.03 +37 35 24.3          19.6 VtEF134198
         K20F04V KC2020 03 24.98978 12 56 37.57 +37 41 47.6          18.3 RVEF134K61
         K20F04V KC2020 03 24.99108 12 56 33.97 +37 42 13.1          18.3 RVEF134K61
         K20F04V KC2020 03 24.99423 12 56 25.16 +37 43 14.4          18.5 RVEF134K61
         K20F04V KC2020 03 25.01590 12 55 25.81 +37 50 40.5          19.1 GVEF134204
         K20F04V HC2020 03 25.02214 12 55 08.22 +37 52 41.7                VEF134204
         K20F04V KC2020 03 25.02896 12 54 48.86 +37 54 53.8                VEF134204
         K20F04V  C2020 03 25.05479 12 53 35.34 +38 02 40.5          18.7 VVEF134033
         K20F04V  C2020 03 25.05530 12 53 33.87 +38 02 50.4          18.7 VVEF134033
         K20F04V  C2020 03 25.05581 12 53 32.41 +38 03 00.0          18.8 VVEF134033
         K20F04V KC2020 03 25.06204612 53 18.78 +38 05 05.3          18.9 GVEF134J95
         K20F04V KC2020 03 25.06382812 53 13.72 +38 05 39.6          19.0 GVEF134J95
         K20F04V KC2020 03 25.06556612 53 08.79 +38 06 13.4          19.1 GVEF134J95
         K20F04V KC2020 03 25.22573712 45 52.56 +38 58 46.4          19.2 VuEF134H21
         K20F04V KC2020 03 25.22742712 45 47.51 +38 59 19.1          19.3 VuEF134H21
         K20F04V KC2020 03 25.22911712 45 42.48 +38 59 51.9          19.1 VuEF134H21
         K20F04V KC2020 03 25.23007312 45 39.61 +39 00 10.3          19.1 VuEF134H21
         K20F04V KC2020 03 25.78755 12 17 42.69 +41 46 06.8          18.9 RVEF134A17
         K20F04V KC2020 03 25.79308 12 17 24.64 +41 47 45.3          18.9 RVEF134A17
         K20F04V KC2020 03 25.79863 12 17 06.41 +41 49 24.8          18.6 RVEF134A17
         K20F04V KC2020 03 25.80424 12 16 47.99 +41 51 03.4          18.5 RVEF134A17
    
    Observer details:
    033 Karl Schwarzschild Observatory, Tautenburg.  Observers F. Ludwig, S. 
       Melnikov, B. Stecklum.  Measurer B. Stecklum.  1.34-m f/3 Schmidt + CCD.
    113 Volkssternwarte Drebach, Schoenbrunn.  Observer G. Lehmann.  0.5-m f/4.6 
       reflector + CCD.
    198 Wildberg.  Observer R. Apitzsch.  0.35-m f/3.1 reflector + CCD.
    204 Schiaparelli Observatory.  Observer L. Buzzi.  0.84-m f/3.5 reflector + CCD.
    246 Klet Observatory-KLENOT.  Observers M. Tichy, J. Ticha.  Measurer M. Tichy. 
        1.06-m f/2.7 reflector + 2048x2048 CCD.
    703 Catalina Sky Survey.  Observer D. Rankin.  Measurers E. J. Christensen, G. 
       A. Farneth, D. C. Fuls, A. R. Gibbs, A. D. Grauer, H. Groeller, R. A. 
       Kowalski, S. M. Larson, G. J. Leonard, T. A. Pruyne, D. Rankin, R. L. Seaman,
        F. C. Shelly, K. W. Wierzchos.  0.68-m Schmidt + 10K CCD.
    A17 Guidestar Observatory, Weinheim.  Observers M. Emmerich, S. Melchert.  
        0.36-m f/6 Schmidt-Cassegrain + CCD.
    B15 Inastars Observatory, Potsdam (since 2006).  Observer B. Thinius.  0.36-m 
       f/5.6 Schmidt-Cassegrain + CCD.
    C43 Hoyerswerda.  Observer P. Lindner.  0.30-m f/6.3 Schmidt-Cassegrain + CCD.
    H21 Astronomical Research Observatory, Westfield.  Observer R. Holmes.  
        Measurers S. Foglia, L. Buzzi, T. Linder, R. Holmes.  0.76-m f/3.0 
       astrograph + CCD.
    I52 Steward Observatory, Mt. Lemmon Station.  Observer D. Rankin.  Measurers E. 
       J. Christensen, G. A. Farneth, D. C. Fuls, A. R. Gibbs, A. D. Grauer, H. 
       Groeller, R. A. Kowalski, S. M. Larson, G. J. Leonard, T. A. Pruyne, D. 
       Rankin, R. L. Seaman, F. C. Shelly, K. W. Wierzchos.  1.0-m reflector + CCD.
    I93 St Pardon de Conques.  Observer F. Losse.  0.40-m f/3.7 reflector + CCD.
    J95 Great Shefford.  Observer P. Birtwhistle.  0.41-m f/6.3 Schmidt-Cassegrain 
       + CCD.
    K61 Rokycany Observatory.  Observer M. Adamovsky.  0.51-m f/6.8 reflector + CCD.
    
    Orbital elements:
    2020 FV4                                                 Earth MOID = 0.0096 AU
    Epoch 2020 May 31.0 TT = JDT 2459000.5                  Veres
    M 312.08254              (2000.0)            P               Q
    n   1.63580028     Peri.  335.12838     +0.99519070     +0.09569549
    a   0.7133717      Node    19.41470     -0.07599694     +0.88904958
    e   0.4423366      Incl.    3.60912     -0.06180558     +0.44769768
    P   0.60           H   25.4           G   0.15           U   8
    Residuals in seconds of arc
    200324 703  0.0   0.5-    200324 B15  0.3-  0.5-    200325 204  0.5-  0.5+
    200324 703  0.4+  1.3-    200324 B15  0.0   0.1+    200325 204  0.1-  0.2+
    200324 703  0.3-  0.1+    200324 246  0.0   0.4+    200325 204  0.8-  0.1-
    200324 I52  0.5+  0.9+    200324 246  0.4-  0.3+    200325 033  0.2+  0.2-
    200324 I52  0.0   1.4+    200324 246  0.1-  0.7+    200325 033  0.1-  0.1-
    200324 I52  0.1-  0.2-    200324 246  0.0   1.1+    200325 033  0.3-  0.3-
    200324 033  0.0   0.3-    200324 I93  0.5-  0.3+    200325 J95  0.2+  0.2-
    200324 033  0.1+  0.4-    200324 I93  0.6-  0.1+    200325 J95  0.2+  0.2-
    200324 033  0.0   0.3-    200324 I93  0.5-  0.6+    200325 J95  0.3+  0.0
    200324 113  0.1-  0.2+    200324 198  0.4-  0.2+    200325 H21  0.5+  0.1-
    200324 113  0.2+  0.3-    200324 198  0.1-  0.2+    200325 H21  0.4+  0.1-
    200324 113  0.0   0.4+    200324 198  0.1+  0.1+    200325 H21  0.5+  0.0
    200324 C43  0.0   0.4-    200324 198  0.3+  0.2-    200325 H21  0.3+  0.0
    200324 C43  0.1-  1.0-    200324 198  0.3+  0.0     200325 A17  0.1-  0.3+
    200324 C43  0.4+  1.1-    200324 K61  0.8-  0.9+    200325 A17  0.2+  0.1-
    200324 C43  0.3+  0.4-    200324 K61  0.4-  0.9+    200325 A17  0.3-  0.4+
    200324 B15  0.2+  0.3-    200324 K61  0.4-  0.5+    200325 A17  0.2-  0.8-
    
    Ephemeris:
    2020 FV4                 a,e,i = 0.71, 0.44, 4                   q = 0.3978
    Date    TT    R. A. (2000) Decl.     Delta      r    Elong.  Phase     V
    2020 02 24    16 04 19.6 -06 20 28   0.1539  1.0123    94.1    77.1    24.1
    ...
    2020 03 10    15 51 24.3 -00 29 46   0.08530 1.0288   112.5    63.1    22.4
    ...
    2020 03 18    15 17 57.2 +09 39 37   0.04903 1.0261   127.9    50.0    20.8
    ...
    2020 03 24    13 35 26.8 +32 14 08   0.02795 1.0189   141.1    37.9    19.2
    2020 03 25    12 56 11.9 +37 46 01   0.02614 1.0173   139.4    39.7    19.1
    2020 03 26    12 05 48.3 +42 46 27   0.02519 1.0155   134.9    44.1    19.1
    ...
    2020 04 01    07 16 25.0 +39 44 36   0.03678 1.0023    93.7    84.2    21.2
    ...
    2020 04 09    05 48 18.7 +26 50 14   0.07004 0.9776    68.1   108.1    23.6
    ...
    2020 04 24    05 04 33.9 +19 15 34   0.1391  0.9091    43.0   131.0    26.7
    
    A. U. Tomatic                (C) Copyright 2020 MPC           M.P.E.C. 2020-F134
    


    Read MPEC 2020-F133 Read MPEC 2020-F135


    MPEC number:

    Enter an MPEC number in one of the following forms:

    • 1997-B01 (the full form)
    • J97B01 (the packed version of the full form)
    • B01 (the abbreviated form)